Time,TemperatureF,DewpointF,PressureIn,WindDirection,WindDirectionDegrees,WindSpeedMPH,WindSpeedGustMPH,Humidity,HourlyPrecipIn,Conditions,Clouds,dailyrainin,SoftwareType,DateUTC
2013-01-27 00:00:00,28.9,18.6,30.52,NNW,337,3.0,4.0,65,0.00,,---,0.00,VWS V14.01,2013-01-27 05:00:00,
2013-01-27 00:01:00,28.9,18.6,30.52,NNW,340,7.0,10.0,65,0.00,,---,0.00,VWS V14.01,2013-01-27 05:01:00,
2013-01-27 00:06:00,28.9,18.3,30.52,North,3,6.0,10.0,64,0.00,,---,0.00,VWS V14.01,2013-01-27 05:06:00,
2013-01-27 00:11:00,28.9,18.3,30.53,North,3,5.0,10.0,64,0.00,,---,0.00,VWS V14.01,2013-01-27 05:11:00,
2013-01-27 00:16:00,28.9,18.3,30.53,NNW,337,4.0,7.0,64,0.00,,---,0.00,VWS V14.01,2013-01-27 05:16:00,
2013-01-27 00:21:00,29.0,18.4,30.53,North,358,6.0,11.0,64,0.00,,---,0.00,VWS V14.01,2013-01-27 05:21:00,
2013-01-27 00:26:00,28.9,18.3,30.53,NNW,335,6.0,12.0,64,0.00,,---,0.00,VWS V14.01,2013-01-27 05:26:00,
2013-01-27 00:31:00,28.8,18.2,30.52,NNW,327,6.0,7.0,64,0.00,,---,0.00,VWS V14.01,2013-01-27 05:31:00,
2013-01-27 00:36:00,28.8,18.2,30.52,North,10,5.0,8.0,64,0.00,,---,0.00,VWS V14.01,2013-01-27 05:36:00,
2013-01-27 00:41:00,28.7,18.4,30.53,North,350,3.0,9.0,65,0.00,,---,0.00,VWS V14.01,2013-01-27 05:41:00,
2013-01-27 00:46:00,28.7,18.4,30.53,NNE,25,3.0,7.0,65,0.00,,---,0.00,VWS V14.01,2013-01-27 05:46:00,
2013-01-27 00:51:00,28.6,18.3,30.53,North,7,4.0,8.0,65,0.00,,---,0.00,VWS V14.01,2013-01-27 05:51:00,
2013-01-27 00:56:00,28.6,18.3,30.53,North,2,3.0,8.0,65,0.00,,---,0.00,VWS V14.01,2013-01-27 05:56:00,
2013-01-27 01:01:00,28.6,18.0,30.53,North,351,5.0,8.0,64,0.00,,---,0.00,VWS V14.01,2013-01-27 06:01:00,
2013-01-27 01:06:00,28.5,18.2,30.53,NNW,339,2.0,8.0,65,0.00,,---,0.00,VWS V14.01,2013-01-27 06:06:00,
2013-01-27 01:11:00,28.5,18.2,30.53,NE,46,1.0,8.0,65,0.00,,---,0.00,VWS V14.01,2013-01-27 06:11:00,
2013-01-27 01:16:00,28.5,18.2,30.53,North,4,6.0,9.0,65,0.00,,---,0.00,VWS V14.01,2013-01-27 06:16:00,
2013-01-27 01:21:00,28.5,18.2,30.53,NNE,14,2.0,9.0,65,0.00,,---,0.00,VWS V14.01,2013-01-27 06:21:00,
2013-01-27 01:26:00,28.4,18.1,30.54,North,4,7.0,9.0,65,0.00,,---,0.00,VWS V14.01,2013-01-27 06:26:00,
2013-01-27 01:31:00,28.5,17.9,30.54,NNW,346,4.0,5.0,64,0.00,,---,0.00,VWS V14.01,2013-01-27 06:31:00,
2013-01-27 01:36:00,28.6,18.0,30.55,NNW,348,3.0,7.0,64,0.00,,---,0.00,VWS V14.01,2013-01-27 06:36:00,
2013-01-27 01:41:00,28.6,18.3,30.55,North,353,3.0,7.0,65,0.00,,---,0.00,VWS V14.01,2013-01-27 06:41:00,
2013-01-27 01:46:00,28.5,18.2,30.55,NNE,24,3.0,6.0,65,0.00,,---,0.00,VWS V14.01,2013-01-27 06:46:00,
2013-01-27 01:51:00,28.5,17.9,30.55,NNW,339,1.0,7.0,64,0.00,,---,0.00,VWS V14.01,2013-01-27 06:51:00,
2013-01-27 01:56:00,28.4,18.1,30.55,North,3,2.0,7.0,65,0.00,,---,0.00,VWS V14.01,2013-01-27 06:56:00,
2013-01-27 02:01:00,28.3,18.1,30.55,North,6,1.0,4.0,65,0.00,,---,0.00,VWS V14.01,2013-01-27 07:01:00,
2013-01-27 02:06:00,28.3,18.1,30.55,North,10,0.0,4.0,65,0.00,,---,0.00,VWS V14.01,2013-01-27 07:06:00,
2013-01-27 02:13:00,28.1,18.2,30.55,North,8,0.0,4.0,66,0.00,,---,0.00,VWS V14.01,2013-01-27 07:13:00,
2013-01-27 02:18:00,27.9,18.0,30.56,WNW,287,0.0,2.0,66,0.00,,---,0.00,VWS V14.01,2013-01-27 07:18:00,
2013-01-27 02:23:00,27.7,17.8,30.56,NW,310,0.0,3.0,66,0.00,,---,0.00,VWS V14.01,2013-01-27 07:23:00,
2013-01-27 02:28:00,27.6,17.7,30.55,NE,36,0.0,3.0,66,0.00,,---,0.00,VWS V14.01,2013-01-27 07:28:00,
2013-01-27 02:33:00,27.5,18.0,30.55,NE,36,0.0,1.0,67,0.00,,---,0.00,VWS V14.01,2013-01-27 07:33:00,
2013-01-27 02:38:00,27.5,18.0,30.55,NNE,18,1.0,4.0,67,0.00,,---,0.00,VWS V14.01,2013-01-27 07:38:00,
2013-01-27 02:43:00,27.4,17.9,30.55,NNE,18,0.0,4.0,67,0.00,,---,0.00,VWS V14.01,2013-01-27 07:43:00,
2013-01-27 02:48:00,27.2,17.7,30.55,North,355,1.0,4.0,67,0.00,,---,0.00,VWS V14.01,2013-01-27 07:48:00,
2013-01-27 02:53:00,27.4,17.9,30.55,North,351,2.0,4.0,67,0.00,,---,0.00,VWS V14.01,2013-01-27 07:53:00,
2013-01-27 02:58:00,27.4,18.2,30.55,North,11,3.0,4.0,68,0.00,,---,0.00,VWS V14.01,2013-01-27 07:58:00,
2013-01-27 03:03:00,27.7,18.2,30.55,North,6,0.0,6.0,67,0.00,,---,0.00,VWS V14.01,2013-01-27 08:03:00,
2013-01-27 03:08:00,27.6,17.7,30.55,North,6,0.0,6.0,66,0.00,,---,0.00,VWS V14.01,2013-01-27 08:08:00,
2013-01-27 03:13:00,27.2,17.7,30.55,ESE,108,0.0,6.0,67,0.00,,---,0.00,VWS V14.01,2013-01-27 08:13:00,
2013-01-27 03:18:00,27.0,17.9,30.55,SSW,202,3.0,3.0,68,0.00,,---,0.00,VWS V14.01,2013-01-27 08:18:00,
2013-01-27 03:23:00,27.0,17.9,30.55,NNE,32,2.0,3.0,68,0.00,,---,0.00,VWS V14.01,2013-01-27 08:23:00,
2013-01-27 03:28:00,27.0,17.9,30.55,NNW,345,0.0,3.0,68,0.00,,---,0.00,VWS V14.01,2013-01-27 08:28:00,
2013-01-27 03:33:00,26.7,17.6,30.55,WSW,256,0.0,2.0,68,0.00,,---,0.00,VWS V14.01,2013-01-27 08:33:00,
2013-01-27 03:38:00,26.2,17.4,30.55,SW,226,1.0,2.0,69,0.00,,---,0.00,VWS V14.01,2013-01-27 08:38:00,
2013-01-27 03:43:00,25.7,17.3,30.55,South,182,0.0,3.0,70,0.00,,---,0.00,VWS V14.01,2013-01-27 08:43:00,
2013-01-27 03:48:00,24.9,17.2,30.55,South,182,0.0,0.0,72,0.00,,---,0.00,VWS V14.01,2013-01-27 08:48:00,
2013-01-27 03:53:00,24.5,17.1,30.55,SSE,162,0.0,2.0,73,0.00,,---,0.00,VWS V14.01,2013-01-27 08:53:00,
2013-01-27 03:58:00,24.2,17.1,30.55,SSE,162,0.0,2.0,74,0.00,,---,0.00,VWS V14.01,2013-01-27 08:58:00,
2013-01-27 04:03:00,23.8,17.0,30.55,SSE,162,0.0,1.0,75,0.00,,---,0.00,VWS V14.01,2013-01-27 09:03:00,
2013-01-27 04:08:00,23.4,16.7,30.55,SSE,162,0.0,1.0,75,0.00,,---,0.00,VWS V14.01,2013-01-27 09:08:00,
2013-01-27 04:13:00,22.9,16.8,30.55,WSW,243,0.0,2.0,77,0.00,,---,0.00,VWS V14.01,2013-01-27 09:13:00,
2013-01-27 04:18:00,22.8,16.7,30.55,SW,214,0.0,1.0,77,0.00,,---,0.00,VWS V14.01,2013-01-27 09:18:00,
2013-01-27 04:23:00,22.7,16.6,30.56,WSW,254,0.0,2.0,77,0.00,,---,0.00,VWS V14.01,2013-01-27 09:23:00,
2013-01-27 04:28:00,22.6,16.8,30.56,WSW,254,0.0,2.0,78,0.00,,---,0.00,VWS V14.01,2013-01-27 09:28:00,
2013-01-27 04:33:00,22.2,16.4,30.56,WSW,254,0.0,0.0,78,0.00,,---,0.00,VWS V14.01,2013-01-27 09:33:00,
2013-01-27 04:37:00,21.9,16.4,30.56,WSW,254,0.0,0.0,79,0.00,,---,0.00,VWS V14.01,2013-01-27 09:37:00,
2013-01-27 04:42:00,21.7,16.2,30.57,WSW,254,0.0,0.0,79,0.00,,---,0.00,VWS V14.01,2013-01-27 09:42:00,
2013-01-27 04:47:00,21.4,16.2,30.57,WSW,254,0.0,0.0,80,0.00,,---,0.00,VWS V14.01,2013-01-27 09:47:00,
2013-01-27 04:52:00,21.1,16.2,30.57,WSW,254,0.0,0.0,81,0.00,,---,0.00,VWS V14.01,2013-01-27 09:52:00,
2013-01-27 04:57:00,20.9,16.0,30.57,WSW,254,0.0,0.0,81,0.00,,---,0.00,VWS V14.01,2013-01-27 09:57:00,
2013-01-27 05:02:00,20.7,16.1,30.57,WSW,254,0.0,0.0,82,0.00,,---,0.00,VWS V14.01,2013-01-27 10:02:00,
2013-01-27 05:07:00,20.4,15.8,30.57,WSW,254,0.0,0.0,82,0.00,,---,0.00,VWS V14.01,2013-01-27 10:07:00,
2013-01-27 05:12:00,20.1,15.8,30.57,WSW,254,0.0,0.0,83,0.00,,---,0.00,VWS V14.01,2013-01-27 10:12:00,
2013-01-27 05:17:00,19.9,15.6,30.57,WSW,254,0.0,0.0,83,0.00,,---,0.00,VWS V14.01,2013-01-27 10:17:00,
2013-01-27 05:22:00,19.8,15.5,30.57,WSW,254,0.0,0.0,83,0.00,,---,0.00,VWS V14.01,2013-01-27 10:22:00,
2013-01-27 05:27:00,19.6,15.3,30.57,WSW,254,0.0,0.0,83,0.00,,---,0.00,VWS V14.01,2013-01-27 10:27:00,
2013-01-27 05:32:00,19.4,15.1,30.57,WSW,254,0.0,0.0,83,0.00,,---,0.00,VWS V14.01,2013-01-27 10:32:00,
2013-01-27 05:37:00,19.2,15.2,30.58,WSW,254,0.0,0.0,84,0.00,,---,0.00,VWS V14.01,2013-01-27 10:37:00,
2013-01-27 05:42:00,19.0,15.2,30.58,WSW,254,0.0,0.0,85,0.00,,---,0.00,VWS V14.01,2013-01-27 10:42:00,
2013-01-27 05:47:00,18.9,15.1,30.58,WSW,254,0.0,0.0,85,0.00,,---,0.00,VWS V14.01,2013-01-27 10:47:00,
2013-01-27 05:52:00,18.8,15.3,30.58,WSW,254,0.0,0.0,86,0.00,,---,0.00,VWS V14.01,2013-01-27 10:52:00,
2013-01-27 05:57:00,18.6,15.1,30.58,WSW,254,0.0,0.0,86,0.00,,---,0.00,VWS V14.01,2013-01-27 10:57:00,
2013-01-27 06:02:00,18.5,15.0,30.59,WSW,254,0.0,0.0,86,0.00,,---,0.00,VWS V14.01,2013-01-27 11:02:00,
2013-01-27 06:07:00,18.2,14.7,30.59,WSW,254,0.0,0.0,86,0.00,,---,0.00,VWS V14.01,2013-01-27 11:07:00,
2013-01-27 06:12:00,18.1,14.9,30.59,WSW,254,0.0,0.0,87,0.00,,---,0.00,VWS V14.01,2013-01-27 11:12:00,
2013-01-27 06:17:00,18.0,14.8,30.59,WSW,254,0.0,0.0,87,0.00,,---,0.00,VWS V14.01,2013-01-27 11:17:00,
2013-01-27 06:22:00,17.9,14.7,30.59,WSW,254,0.0,0.0,87,0.00,,---,0.00,VWS V14.01,2013-01-27 11:22:00,
2013-01-27 06:27:00,17.7,14.5,30.59,WSW,254,0.0,0.0,87,0.00,,---,0.00,VWS V14.01,2013-01-27 11:27:00,
2013-01-27 06:32:00,17.7,14.8,30.60,WSW,254,0.0,0.0,88,0.00,,---,0.00,VWS V14.01,2013-01-27 11:32:00,
2013-01-27 06:37:00,17.6,14.7,30.60,WSW,254,0.0,0.0,88,0.00,,---,0.00,VWS V14.01,2013-01-27 11:37:00,
2013-01-27 06:42:00,17.6,14.7,30.60,WSW,254,0.0,0.0,88,0.00,,---,0.00,VWS V14.01,2013-01-27 11:42:00,
2013-01-27 06:47:00,17.5,14.6,30.60,WSW,254,0.0,0.0,88,0.00,,---,0.00,VWS V14.01,2013-01-27 11:47:00,
2013-01-27 06:52:00,17.4,14.5,30.60,WSW,254,0.0,0.0,88,0.00,,---,0.00,VWS V14.01,2013-01-27 11:52:00,
2013-01-27 06:57:00,17.5,14.8,30.60,WSW,254,0.0,0.0,89,0.00,,---,0.00,VWS V14.01,2013-01-27 11:57:00,
2013-01-27 07:02:00,17.6,14.9,30.60,WSW,254,0.0,0.0,89,0.00,,---,0.00,VWS V14.01,2013-01-27 12:02:00,
2013-01-27 07:07:00,17.5,14.6,30.61,WSW,254,0.0,0.0,88,0.00,,---,0.00,VWS V14.01,2013-01-27 12:07:00,
2013-01-27 07:12:00,17.5,14.8,30.61,WSW,254,0.0,0.0,89,0.00,,---,0.00,VWS V14.01,2013-01-27 12:12:00,
2013-01-27 07:17:00,17.5,14.8,30.62,WSW,254,0.0,0.0,89,0.00,,---,0.00,VWS V14.01,2013-01-27 12:17:00,
2013-01-27 07:22:00,17.4,14.7,30.62,WSW,254,0.0,0.0,89,0.00,,---,0.00,VWS V14.01,2013-01-27 12:22:00,
2013-01-27 07:27:00,17.3,14.4,30.62,WSW,254,0.0,0.0,88,0.00,,---,0.00,VWS V14.01,2013-01-27 12:27:00,
2013-01-27 07:32:00,17.3,14.6,30.63,WSW,254,0.0,0.0,89,0.00,,---,0.00,VWS V14.01,2013-01-27 12:32:00,
2013-01-27 07:37:00,17.6,15.2,30.63,WSW,254,1.0,2.0,90,0.00,,---,0.00,VWS V14.01,2013-01-27 12:37:00,
2013-01-27 07:42:00,17.8,15.1,30.63,WSW,254,0.0,2.0,89,0.00,,---,0.00,VWS V14.01,2013-01-27 12:42:00,
2013-01-27 07:47:00,18.0,15.3,30.63,WSW,254,0.0,0.0,89,0.00,,---,0.00,VWS V14.01,2013-01-27 12:47:00,
2013-01-27 07:52:00,18.1,15.4,30.64,WSW,254,0.0,0.0,89,0.00,,---,0.00,VWS V14.01,2013-01-27 12:52:00,
2013-01-27 07:57:00,18.3,15.9,30.64,WSW,254,0.0,0.0,90,0.00,,---,0.00,VWS V14.01,2013-01-27 12:57:00,
2013-01-27 08:02:00,18.5,15.8,30.64,WSW,254,0.0,0.0,89,0.00,,---,0.00,VWS V14.01,2013-01-27 13:02:00,
2013-01-27 08:07:00,18.7,16.0,30.65,WSW,254,0.0,0.0,89,0.00,,---,0.00,VWS V14.01,2013-01-27 13:07:00,
2013-01-27 08:12:00,19.1,16.4,30.65,WSW,254,0.0,0.0,89,0.00,,---,0.00,VWS V14.01,2013-01-27 13:12:00,
2013-01-27 08:17:00,19.5,17.0,30.65,WSW,254,0.0,0.0,90,0.00,,---,0.00,VWS V14.01,2013-01-27 13:17:00,
2013-01-27 08:22:00,20.0,17.5,30.66,WSW,254,0.0,0.0,90,0.00,,---,0.00,VWS V14.01,2013-01-27 13:22:00,
2013-01-27 08:27:00,20.4,17.7,30.66,WSW,254,0.0,0.0,89,0.00,,---,0.00,VWS V14.01,2013-01-27 13:27:00,
2013-01-27 08:32:00,20.7,18.0,30.66,WSW,254,0.0,1.0,89,0.00,,---,0.00,VWS V14.01,2013-01-27 13:32:00,
2013-01-27 08:37:00,21.3,18.6,30.66,SW,229,0.0,1.0,89,0.00,,---,0.00,VWS V14.01,2013-01-27 13:37:00,
2013-01-27 08:42:00,21.8,18.8,30.66,SSW,204,0.0,2.0,88,0.00,,---,0.00,VWS V14.01,2013-01-27 13:42:00,
2013-01-27 08:47:00,22.2,18.7,30.66,SSW,204,0.0,0.0,86,0.00,,---,0.00,VWS V14.01,2013-01-27 13:47:00,
2013-01-27 08:52:00,22.5,19.0,30.66,SSW,204,0.0,0.0,86,0.00,,---,0.00,VWS V14.01,2013-01-27 13:52:00,
2013-01-27 08:57:00,22.9,19.4,30.66,SSW,204,0.0,0.0,86,0.00,,---,0.00,VWS V14.01,2013-01-27 13:57:00,
2013-01-27 09:02:00,23.3,19.5,30.67,SSW,204,0.0,0.0,85,0.00,,---,0.00,VWS V14.01,2013-01-27 14:02:00,
2013-01-27 09:07:00,23.6,19.8,30.67,SSW,204,0.0,0.0,85,0.00,,---,0.00,VWS V14.01,2013-01-27 14:07:00,
2013-01-27 09:12:00,23.9,20.1,30.67,SSW,204,0.0,0.0,85,0.00,,---,0.00,VWS V14.01,2013-01-27 14:12:00,
2013-01-27 09:17:00,24.2,20.4,30.67,SSW,204,0.0,1.0,85,0.00,,---,0.00,VWS V14.01,2013-01-27 14:17:00,
2013-01-27 09:22:00,24.6,20.7,30.67,South,189,0.0,1.0,85,0.00,,---,0.00,VWS V14.01,2013-01-27 14:22:00,
2013-01-27 09:27:00,24.9,21.0,30.67,South,169,0.0,2.0,85,0.00,,---,0.00,VWS V14.01,2013-01-27 14:27:00,
2013-01-27 09:32:00,25.1,21.0,30.68,SE,128,0.0,2.0,84,0.00,,---,0.00,VWS V14.01,2013-01-27 14:32:00,
2013-01-27 09:37:00,25.4,21.2,30.68,SE,128,0.0,2.0,84,0.00,,---,0.00,VWS V14.01,2013-01-27 14:37:00,
2013-01-27 09:42:00,25.6,21.2,30.68,SE,128,0.0,2.0,83,0.00,,---,0.00,VWS V14.01,2013-01-27 14:42:00,
2013-01-27 09:47:00,25.7,21.0,30.68,SE,128,0.0,1.0,82,0.00,,---,0.00,VWS V14.01,2013-01-27 14:47:00,
2013-01-27 09:52:00,25.8,21.1,30.68,SE,128,0.0,1.0,82,0.00,,---,0.00,VWS V14.01,2013-01-27 14:52:00,
2013-01-27 09:57:00,25.9,21.2,30.68,SE,128,0.0,1.0,82,0.00,,---,0.00,VWS V14.01,2013-01-27 14:57:00,
2013-01-27 10:02:00,26.1,21.1,30.68,SE,128,0.0,0.0,81,0.00,,---,0.00,VWS V14.01,2013-01-27 15:02:00,
2013-01-27 10:07:00,26.4,21.1,30.68,SE,128,0.0,1.0,80,0.00,,---,0.00,VWS V14.01,2013-01-27 15:07:00,
2013-01-27 10:12:00,26.7,21.4,30.68,SE,128,1.0,2.0,80,0.00,,---,0.00,VWS V14.01,2013-01-27 15:12:00,
2013-01-27 10:17:00,26.8,21.2,30.68,SE,128,0.0,1.0,79,0.00,,---,0.00,VWS V14.01,2013-01-27 15:17:00,
2013-01-27 10:22:00,27.0,21.4,30.69,SE,128,0.0,1.0,79,0.00,,---,0.00,VWS V14.01,2013-01-27 15:22:00,
2013-01-27 10:27:00,27.2,21.9,30.69,SE,128,0.0,1.0,80,0.00,,---,0.00,VWS V14.01,2013-01-27 15:27:00,
2013-01-27 10:32:00,27.5,21.9,30.69,SE,128,0.0,0.0,79,0.00,,---,0.00,VWS V14.01,2013-01-27 15:32:00,
2013-01-27 10:37:00,27.8,21.5,30.69,SE,128,0.0,0.0,77,0.00,,---,0.00,VWS V14.01,2013-01-27 15:37:00,
2013-01-27 10:42:00,27.9,21.0,30.70,SE,128,0.0,0.0,75,0.00,,---,0.00,VWS V14.01,2013-01-27 15:42:00,
2013-01-27 10:47:00,28.1,21.2,30.70,SE,128,0.0,1.0,75,0.00,,---,0.00,VWS V14.01,2013-01-27 15:47:00,
2013-01-27 10:52:00,28.2,21.3,30.70,SE,128,0.0,1.0,75,0.00,,---,0.00,VWS V14.01,2013-01-27 15:52:00,
2013-01-27 10:57:00,28.3,21.1,30.70,SE,128,0.0,1.0,74,0.00,,---,0.00,VWS V14.01,2013-01-27 15:57:00,
2013-01-27 11:02:00,28.5,21.0,30.70,SSE,160,0.0,1.0,73,0.00,,---,0.00,VWS V14.01,2013-01-27 16:02:00,
2013-01-27 11:07:00,28.7,20.8,30.70,SSE,160,0.0,1.0,72,0.00,,---,0.00,VWS V14.01,2013-01-27 16:07:00,
2013-01-27 11:12:00,28.8,20.9,30.69,SSE,160,0.0,1.0,72,0.00,,---,0.00,VWS V14.01,2013-01-27 16:12:00,
2013-01-27 11:17:00,29.0,20.8,30.70,SSE,160,0.0,0.0,71,0.00,,---,0.00,VWS V14.01,2013-01-27 16:17:00,
2013-01-27 11:22:00,29.4,21.2,30.70,SSE,160,0.0,0.0,71,0.00,,---,0.00,VWS V14.01,2013-01-27 16:22:00,
2013-01-27 11:27:00,29.6,21.0,30.70,SW,232,0.0,1.0,70,0.00,,---,0.00,VWS V14.01,2013-01-27 16:27:00,
2013-01-27 11:32:00,29.8,21.6,30.70,SW,232,0.0,0.0,71,0.00,,---,0.00,VWS V14.01,2013-01-27 16:32:00,
2013-01-27 11:37:00,30.1,22.2,30.70,SW,224,0.0,1.0,72,0.00,,---,0.00,VWS V14.01,2013-01-27 16:37:00,
2013-01-27 11:42:00,30.4,21.5,30.69,North,2,0.0,3.0,69,0.00,,---,0.00,VWS V14.01,2013-01-27 16:42:00,
2013-01-27 11:47:00,30.5,21.9,30.69,North,2,0.0,1.0,70,0.00,,---,0.00,VWS V14.01,2013-01-27 16:47:00,
2013-01-27 11:52:00,30.7,22.1,30.69,ENE,75,0.0,1.0,70,0.00,,---,0.00,VWS V14.01,2013-01-27 16:52:00,
2013-01-27 11:57:00,30.9,22.3,30.68,SE,133,0.0,2.0,70,0.00,,---,0.00,VWS V14.01,2013-01-27 16:57:00,
2013-01-27 12:02:00,31.1,22.5,30.68,SSE,156,1.0,3.0,70,0.00,,---,0.00,VWS V14.01,2013-01-27 17:02:00,
2013-01-27 12:07:00,31.5,23.5,30.67,South,181,1.0,3.0,72,0.00,,---,0.00,VWS V14.01,2013-01-27 17:07:00,
2013-01-27 12:12:00,31.7,23.4,30.67,SSW,205,1.0,5.0,71,0.00,,---,0.00,VWS V14.01,2013-01-27 17:12:00,
2013-01-27 12:17:00,32.0,23.3,30.66,SSE,149,1.0,5.0,70,0.00,,---,0.00,VWS V14.01,2013-01-27 17:17:00,
2013-01-27 12:22:00,32.4,23.4,30.65,SSW,204,2.0,5.0,69,0.00,,---,0.00,VWS V14.01,2013-01-27 17:22:00,
2013-01-27 12:27:00,32.9,24.2,30.65,SE,144,2.0,5.0,70,0.00,,---,0.00,VWS V14.01,2013-01-27 17:27:00,
2013-01-27 12:32:00,33.1,23.7,30.65,SSE,164,0.0,3.0,68,0.00,,---,0.00,VWS V14.01,2013-01-27 17:32:00,
2013-01-27 12:37:00,33.2,24.1,30.65,SW,228,3.0,4.0,69,0.00,,---,0.00,VWS V14.01,2013-01-27 17:37:00,
2013-01-27 12:42:00,33.2,23.8,30.64,SSW,210,2.0,4.0,68,0.00,,---,0.00,VWS V14.01,2013-01-27 17:42:00,
2013-01-27 12:47:00,33.3,23.9,30.64,SSE,164,2.0,4.0,68,0.00,,---,0.00,VWS V14.01,2013-01-27 17:47:00,
2013-01-27 12:52:00,33.2,23.5,30.64,SSE,160,1.0,7.0,67,0.00,,---,0.00,VWS V14.01,2013-01-27 17:52:00,
2013-01-27 12:57:00,33.1,23.4,30.64,SSW,200,2.0,7.0,67,0.00,,---,0.00,VWS V14.01,2013-01-27 17:57:00,
2013-01-27 13:02:00,32.9,23.2,30.64,SSE,156,3.0,6.0,67,0.00,,---,0.00,VWS V14.01,2013-01-27 18:02:00,
2013-01-27 13:07:00,32.6,23.2,30.64,SSE,161,2.0,6.0,68,0.00,,---,0.00,VWS V14.01,2013-01-27 18:07:00,
2013-01-27 13:12:00,32.5,23.5,30.64,South,181,2.0,6.0,69,0.00,,---,0.00,VWS V14.01,2013-01-27 18:12:00,
2013-01-27 13:17:00,32.7,23.7,30.64,South,171,3.0,8.0,69,0.00,,---,0.00,VWS V14.01,2013-01-27 18:17:00,
2013-01-27 13:22:00,32.7,23.3,30.64,South,169,4.0,8.0,68,0.00,,---,0.00,VWS V14.01,2013-01-27 18:22:00,
2013-01-27 13:27:00,32.8,23.4,30.64,South,181,3.0,8.0,68,0.00,,---,0.00,VWS V14.01,2013-01-27 18:27:00,
2013-01-27 13:32:00,32.8,23.8,30.63,SSW,208,4.0,5.0,69,0.00,,---,0.00,VWS V14.01,2013-01-27 18:32:00,
2013-01-27 13:37:00,32.9,23.5,30.63,South,175,2.0,7.0,68,0.00,,---,0.00,VWS V14.01,2013-01-27 18:37:00,
2013-01-27 13:42:00,32.8,23.8,30.63,South,190,2.0,7.0,69,0.00,,---,0.00,VWS V14.01,2013-01-27 18:42:00,
2013-01-27 13:47:00,32.9,23.9,30.63,SE,129,2.0,4.0,69,0.00,,---,0.00,VWS V14.01,2013-01-27 18:47:00,
2013-01-27 13:52:00,33.1,23.7,30.63,SSW,200,1.0,4.0,68,0.00,,---,0.00,VWS V14.01,2013-01-27 18:52:00,
2013-01-27 13:57:00,33.3,23.5,30.63,South,180,4.0,7.0,67,0.00,,---,0.00,VWS V14.01,2013-01-27 18:57:00,
2013-01-27 14:02:00,33.2,23.8,30.63,SW,235,3.0,8.0,68,0.00,,---,0.00,VWS V14.01,2013-01-27 19:02:00,
2013-01-27 14:07:00,33.1,23.7,30.63,South,177,2.0,8.0,68,0.00,,---,0.00,VWS V14.01,2013-01-27 19:07:00,
2013-01-27 14:12:00,33.1,23.7,30.63,WNW,283,0.0,8.0,68,0.00,,---,0.00,VWS V14.01,2013-01-27 19:12:00,
2013-01-27 14:17:00,33.1,23.4,30.63,SSE,162,8.0,8.0,67,0.00,,---,0.00,VWS V14.01,2013-01-27 19:17:00,
2013-01-27 14:22:00,33.0,23.6,30.63,South,169,3.0,8.0,68,0.00,,---,0.00,VWS V14.01,2013-01-27 19:22:00,
2013-01-27 14:27:00,33.1,23.7,30.63,ESE,118,3.0,8.0,68,0.00,,---,0.00,VWS V14.01,2013-01-27 19:27:00,
2013-01-27 14:32:00,33.2,23.8,30.63,South,180,2.0,6.0,68,0.00,,---,0.00,VWS V14.01,2013-01-27 19:32:00,
2013-01-27 14:37:00,33.5,24.1,30.62,SSE,158,1.0,6.0,68,0.00,,---,0.00,VWS V14.01,2013-01-27 19:37:00,
2013-01-27 14:42:00,33.7,23.9,30.62,SSE,152,1.0,7.0,67,0.00,,---,0.00,VWS V14.01,2013-01-27 19:42:00,
2013-01-27 14:47:00,33.8,24.0,30.62,South,177,7.0,7.0,67,0.00,,---,0.00,VWS V14.01,2013-01-27 19:47:00,
2013-01-27 14:52:00,33.7,23.9,30.62,SE,133,3.0,7.0,67,0.00,,---,0.00,VWS V14.01,2013-01-27 19:52:00,
2013-01-27 14:57:00,33.7,23.9,30.62,South,172,6.0,7.0,67,0.00,,---,0.00,VWS V14.01,2013-01-27 19:57:00,
2013-01-27 15:02:00,33.7,23.6,30.62,SSE,158,5.0,5.0,66,0.00,,---,0.00,VWS V14.01,2013-01-27 20:02:00,
2013-01-27 15:07:00,33.7,23.9,30.62,South,172,4.0,6.0,67,0.00,,---,0.00,VWS V14.01,2013-01-27 20:07:00,
2013-01-27 15:12:00,33.7,23.9,30.62,SSW,202,4.0,6.0,67,0.00,,---,0.00,VWS V14.01,2013-01-27 20:12:00,
2013-01-27 15:17:00,33.8,24.0,30.62,SSE,168,3.0,4.0,67,0.00,,---,0.00,VWS V14.01,2013-01-27 20:17:00,
2013-01-27 15:22:00,33.8,23.7,30.62,South,175,3.0,6.0,66,0.00,,---,0.00,VWS V14.01,2013-01-27 20:22:00,
2013-01-27 15:27:00,33.9,24.5,30.62,SE,144,2.0,6.0,68,0.00,,---,0.00,VWS V14.01,2013-01-27 20:27:00,
2013-01-27 15:32:00,34.1,24.3,30.62,South,177,2.0,3.0,67,0.00,,---,0.00,VWS V14.01,2013-01-27 20:32:00,
2013-01-27 15:37:00,34.2,24.0,30.62,SSE,147,0.0,3.0,66,0.00,,---,0.00,VWS V14.01,2013-01-27 20:37:00,
2013-01-27 15:42:00,34.3,24.5,30.62,WSW,254,0.0,3.0,67,0.00,,---,0.00,VWS V14.01,2013-01-27 20:42:00,
2013-01-27 15:47:00,34.3,24.1,30.62,SE,125,3.0,5.0,66,0.00,,---,0.00,VWS V14.01,2013-01-27 20:47:00,
2013-01-27 15:52:00,34.2,24.0,30.62,SE,144,0.0,5.0,66,0.00,,---,0.00,VWS V14.01,2013-01-27 20:52:00,
2013-01-27 15:57:00,34.1,24.3,30.62,SE,126,3.0,5.0,67,0.00,,---,0.00,VWS V14.01,2013-01-27 20:57:00,
2013-01-27 16:02:00,33.9,24.1,30.62,SE,130,0.0,3.0,67,0.00,,---,0.00,VWS V14.01,2013-01-27 21:02:00,
2013-01-27 16:07:00,33.8,24.0,30.61,East,94,1.0,5.0,67,0.00,,---,0.00,VWS V14.01,2013-01-27 21:07:00,
2013-01-27 16:12:00,33.7,24.3,30.62,SSE,147,1.0,5.0,68,0.00,,---,0.00,VWS V14.01,2013-01-27 21:12:00,
2013-01-27 16:17:00,33.6,23.8,30.62,SE,129,2.0,2.0,67,0.00,,---,0.00,VWS V14.01,2013-01-27 21:17:00,
2013-01-27 16:22:00,33.6,24.2,30.61,SE,129,0.0,2.0,68,0.00,,---,0.00,VWS V14.01,2013-01-27 21:22:00,
2013-01-27 16:27:00,33.7,24.3,30.61,SE,129,0.0,2.0,68,0.00,,---,0.00,VWS V14.01,2013-01-27 21:27:00,
2013-01-27 16:32:00,33.6,23.8,30.62,SE,136,0.0,0.0,67,0.00,,---,0.00,VWS V14.01,2013-01-27 21:32:00,
2013-01-27 16:37:00,33.6,24.2,30.62,SSE,168,1.0,3.0,68,0.00,,---,0.00,VWS V14.01,2013-01-27 21:37:00,
2013-01-27 16:42:00,33.5,24.1,30.62,SSE,164,0.0,3.0,68,0.00,,---,0.00,VWS V14.01,2013-01-27 21:42:00,
2013-01-27 16:47:00,33.5,24.1,30.62,SSE,164,1.0,1.0,68,0.00,,---,0.00,VWS V14.01,2013-01-27 21:47:00,
2013-01-27 16:52:00,33.5,24.1,30.62,SSE,164,0.0,1.0,68,0.00,,---,0.00,VWS V14.01,2013-01-27 21:52:00,
2013-01-27 16:57:00,33.5,23.7,30.62,SSE,164,0.0,1.0,67,0.00,,---,0.00,VWS V14.01,2013-01-27 21:57:00,
2013-01-27 17:02:00,33.5,24.1,30.62,SSE,164,0.0,0.0,68,0.00,,---,0.00,VWS V14.01,2013-01-27 22:02:00,
2013-01-27 17:07:00,33.5,24.1,30.62,SSE,164,0.0,0.0,68,0.00,,---,0.00,VWS V14.01,2013-01-27 22:07:00,
2013-01-27 17:12:00,33.5,24.1,30.63,SSE,164,0.0,0.0,68,0.00,,---,0.00,VWS V14.01,2013-01-27 22:12:00,
2013-01-27 17:17:00,33.5,24.1,30.62,SSE,164,0.0,0.0,68,0.00,,---,0.00,VWS V14.01,2013-01-27 22:17:00,
2013-01-27 17:22:00,33.5,24.1,30.62,SSE,164,0.0,0.0,68,0.00,,---,0.00,VWS V14.01,2013-01-27 22:22:00,
2013-01-27 17:27:00,33.4,24.3,30.62,SSE,164,0.0,0.0,69,0.00,,---,0.00,VWS V14.01,2013-01-27 22:27:00,
2013-01-27 17:32:00,33.3,23.9,30.61,SSE,164,0.0,0.0,68,0.00,,---,0.00,VWS V14.01,2013-01-27 22:32:00,
2013-01-27 17:37:00,33.2,23.8,30.62,SSE,164,0.0,0.0,68,0.00,,---,0.00,VWS V14.01,2013-01-27 22:37:00,
2013-01-27 17:42:00,33.1,24.0,30.62,SSE,164,0.0,0.0,69,0.00,,---,0.00,VWS V14.01,2013-01-27 22:42:00,
2013-01-27 17:47:00,32.9,24.5,30.63,SSE,164,0.0,0.0,71,0.00,,---,0.00,VWS V14.01,2013-01-27 22:47:00,
2013-01-27 17:52:00,32.8,24.8,30.63,SSE,164,0.0,0.0,72,0.00,,---,0.00,VWS V14.01,2013-01-27 22:52:00,
2013-01-27 17:57:00,32.6,24.2,30.62,SSE,164,0.0,0.0,71,0.00,,---,0.00,VWS V14.01,2013-01-27 22:57:00,
2013-01-27 18:02:00,32.4,24.1,30.63,SSE,164,0.0,0.0,71,0.00,,---,0.00,VWS V14.01,2013-01-27 23:02:00,
2013-01-27 18:07:00,32.3,24.6,30.63,SSE,164,0.0,0.0,73,0.00,,---,0.00,VWS V14.01,2013-01-27 23:07:00,
2013-01-27 18:12:00,32.2,24.9,30.62,SSE,164,0.0,0.0,74,0.00,,---,0.00,VWS V14.01,2013-01-27 23:12:00,
2013-01-27 18:17:00,32.0,24.7,30.62,SSE,164,0.0,0.0,74,0.00,,---,0.00,VWS V14.01,2013-01-27 23:17:00,
2013-01-27 18:22:00,31.9,24.6,30.61,SSE,164,0.0,0.0,74,0.00,,---,0.00,VWS V14.01,2013-01-27 23:22:00,
2013-01-27 18:27:00,31.8,24.5,30.62,SSE,164,0.0,1.0,74,0.00,,---,0.00,VWS V14.01,2013-01-27 23:27:00,
2013-01-27 18:32:00,31.6,24.6,30.61,SSE,164,0.0,0.0,75,0.00,,---,0.00,VWS V14.01,2013-01-27 23:32:00,
2013-01-27 18:37:00,31.5,24.2,30.61,SSE,164,0.0,0.0,74,0.00,,---,0.00,VWS V14.01,2013-01-27 23:37:00,
2013-01-27 18:42:00,31.4,24.4,30.62,SSE,164,0.0,0.0,75,0.00,,---,0.00,VWS V14.01,2013-01-27 23:42:00,
2013-01-27 18:47:00,31.2,24.5,30.61,SSE,164,0.0,0.0,76,0.00,,---,0.00,VWS V14.01,2013-01-27 23:47:00,
2013-01-27 18:52:00,31.0,25.0,30.61,SSE,164,0.0,0.0,78,0.00,,---,0.00,VWS V14.01,2013-01-27 23:52:00,
2013-01-27 18:57:00,30.8,24.5,30.62,SSE,164,0.0,0.0,77,0.00,,---,0.00,VWS V14.01,2013-01-27 23:57:00,
2013-01-27 19:02:00,30.7,25.0,30.62,SSE,164,0.0,0.0,79,0.00,,---,0.00,VWS V14.01,2013-01-28 00:02:00,
2013-01-27 19:07:00,30.7,25.0,30.62,SSE,164,0.0,0.0,79,0.00,,---,0.00,VWS V14.01,2013-01-28 00:07:00,
2013-01-27 19:12:00,30.7,24.7,30.62,SSE,164,0.0,0.0,78,0.00,,---,0.00,VWS V14.01,2013-01-28 00:12:00,
2013-01-27 19:17:00,30.7,25.3,30.62,SSE,164,0.0,0.0,80,0.00,,---,0.00,VWS V14.01,2013-01-28 00:17:00,
2013-01-27 19:22:00,30.6,25.2,30.62,SSE,164,0.0,0.0,80,0.00,,---,0.00,VWS V14.01,2013-01-28 00:22:00,
2013-01-27 19:27:00,30.6,25.2,30.62,SSE,164,0.0,0.0,80,0.00,,---,0.00,VWS V14.01,2013-01-28 00:27:00,
2013-01-27 19:32:00,30.6,25.2,30.62,SSE,164,0.0,0.0,80,0.00,,---,0.00,VWS V14.01,2013-01-28 00:32:00,
2013-01-27 19:37:00,30.6,24.9,30.62,SSE,164,0.0,0.0,79,0.00,,---,0.00,VWS V14.01,2013-01-28 00:37:00,
2013-01-27 19:42:00,30.6,25.5,30.62,SSE,164,0.0,0.0,81,0.00,,---,0.00,VWS V14.01,2013-01-28 00:42:00,
2013-01-27 19:47:00,30.6,25.2,30.60,SSE,164,0.0,0.0,80,0.00,,---,0.00,VWS V14.01,2013-01-28 00:47:00,
2013-01-27 19:52:00,30.6,25.2,30.60,SSE,164,0.0,0.0,80,0.00,,---,0.00,VWS V14.01,2013-01-28 00:52:00,
2013-01-27 19:57:00,30.7,25.6,30.60,SSE,164,0.0,0.0,81,0.00,,---,0.00,VWS V14.01,2013-01-28 00:57:00,
2013-01-27 20:02:00,30.6,25.5,30.61,SSE,164,0.0,0.0,81,0.00,,---,0.00,VWS V14.01,2013-01-28 01:02:00,
2013-01-27 20:07:00,30.6,25.2,30.61,SSE,164,0.0,0.0,80,0.00,,---,0.00,VWS V14.01,2013-01-28 01:07:00,
2013-01-27 20:12:00,30.6,25.2,30.61,SSE,164,0.0,0.0,80,0.00,,---,0.00,VWS V14.01,2013-01-28 01:12:00,
2013-01-27 20:17:00,30.6,24.9,30.61,SSE,164,0.0,0.0,79,0.00,,---,0.00,VWS V14.01,2013-01-28 01:17:00,
2013-01-27 20:22:00,30.5,25.1,30.61,SSE,164,0.0,0.0,80,0.00,,---,0.00,VWS V14.01,2013-01-28 01:22:00,
2013-01-27 20:27:00,30.3,25.2,30.61,SSE,164,0.0,0.0,81,0.00,,---,0.00,VWS V14.01,2013-01-28 01:27:00,
2013-01-27 20:32:00,30.1,25.0,30.61,SSE,164,0.0,0.0,81,0.00,,---,0.00,VWS V14.01,2013-01-28 01:32:00,
2013-01-27 20:37:00,29.9,25.1,30.61,SSE,164,0.0,0.0,82,0.00,,---,0.00,VWS V14.01,2013-01-28 01:37:00,
2013-01-27 20:42:00,29.7,24.9,30.61,SSE,164,0.0,0.0,82,0.00,,---,0.00,VWS V14.01,2013-01-28 01:42:00,
2013-01-27 20:47:00,29.4,24.6,30.61,SSE,164,0.0,0.0,82,0.00,,---,0.00,VWS V14.01,2013-01-28 01:47:00,
2013-01-27 20:52:00,29.0,24.5,30.61,SSE,164,0.0,0.0,83,0.00,,---,0.00,VWS V14.01,2013-01-28 01:52:00,
2013-01-27 20:56:00,28.8,24.6,30.61,SSE,164,0.0,0.0,84,0.00,,---,0.00,VWS V14.01,2013-01-28 01:56:00,
2013-01-27 21:01:00,28.6,24.4,30.61,SSE,164,0.0,0.0,84,0.00,,---,0.00,VWS V14.01,2013-01-28 02:01:00,
2013-01-27 21:06:00,28.4,24.2,30.60,SSE,164,0.0,0.0,84,0.00,,---,0.00,VWS V14.01,2013-01-28 02:06:00,
2013-01-27 21:11:00,28.2,24.0,30.60,SSE,164,0.0,0.0,84,0.00,,---,0.00,VWS V14.01,2013-01-28 02:11:00,
2013-01-27 21:16:00,27.9,23.7,30.60,SSE,164,0.0,0.0,84,0.00,,---,0.00,VWS V14.01,2013-01-28 02:16:00,
2013-01-27 21:21:00,27.7,23.8,30.60,SSE,164,0.0,0.0,85,0.00,,---,0.00,VWS V14.01,2013-01-28 02:21:00,
2013-01-27 21:26:00,27.5,23.6,30.60,SSE,164,0.0,0.0,85,0.00,,---,0.00,VWS V14.01,2013-01-28 02:26:00,
2013-01-27 21:31:00,27.3,23.4,30.60,SSE,164,0.0,0.0,85,0.00,,---,0.00,VWS V14.01,2013-01-28 02:31:00,
2013-01-27 21:36:00,27.1,23.5,30.59,SSE,164,0.0,0.0,86,0.00,,---,0.00,VWS V14.01,2013-01-28 02:36:00,
2013-01-27 21:41:00,26.9,23.0,30.60,SSE,164,0.0,0.0,85,0.00,,---,0.00,VWS V14.01,2013-01-28 02:41:00,
2013-01-27 21:46:00,26.8,23.2,30.60,SSE,164,0.0,0.0,86,0.00,,---,0.00,VWS V14.01,2013-01-28 02:46:00,
2013-01-27 21:51:00,26.7,23.4,30.60,SSE,164,0.0,0.0,87,0.00,,---,0.00,VWS V14.01,2013-01-28 02:51:00,
2013-01-27 21:56:00,26.7,23.4,30.60,SSE,164,0.0,0.0,87,0.00,,---,0.00,VWS V14.01,2013-01-28 02:56:00,
2013-01-27 22:01:00,26.7,23.4,30.60,SSE,164,0.0,0.0,87,0.00,,---,0.00,VWS V14.01,2013-01-28 03:01:00,
2013-01-27 22:06:00,26.7,23.4,30.60,SSE,164,0.0,0.0,87,0.00,,---,0.00,VWS V14.01,2013-01-28 03:06:00,
2013-01-27 22:11:00,26.8,23.7,30.60,SSE,164,0.0,0.0,88,0.00,,---,0.00,VWS V14.01,2013-01-28 03:11:00,
2013-01-27 22:16:00,27.0,23.9,30.60,SSE,164,0.0,0.0,88,0.00,,---,0.00,VWS V14.01,2013-01-28 03:16:00,
2013-01-27 22:21:00,27.2,23.9,30.60,SSE,164,0.0,0.0,87,0.00,,---,0.00,VWS V14.01,2013-01-28 03:21:00,
2013-01-27 22:26:00,27.4,24.0,30.60,SSE,164,0.0,0.0,87,0.00,,---,0.00,VWS V14.01,2013-01-28 03:26:00,
2013-01-27 22:31:00,27.6,24.2,30.60,SSE,164,0.0,0.0,87,0.00,,---,0.00,VWS V14.01,2013-01-28 03:31:00,
2013-01-27 22:36:00,27.7,24.3,30.59,SSE,164,0.0,0.0,87,0.00,,---,0.00,VWS V14.01,2013-01-28 03:36:00,
2013-01-27 22:41:00,27.9,24.5,30.59,SSE,164,0.0,0.0,87,0.00,,---,0.00,VWS V14.01,2013-01-28 03:41:00,
2013-01-27 22:46:00,28.1,24.7,30.59,SSE,164,0.0,0.0,87,0.00,,---,0.00,VWS V14.01,2013-01-28 03:46:00,
2013-01-27 22:51:00,28.2,24.8,30.59,SSE,164,0.0,0.0,87,0.00,,---,0.00,VWS V14.01,2013-01-28 03:51:00,
2013-01-27 22:56:00,28.5,24.9,30.58,SSE,164,0.0,0.0,86,0.00,,---,0.00,VWS V14.01,2013-01-28 03:56:00,
2013-01-27 23:01:00,28.7,25.0,30.58,SSE,164,0.0,0.0,86,0.00,,---,0.00,VWS V14.01,2013-01-28 04:01:00,
2013-01-27 23:06:00,28.8,25.1,30.58,SSE,164,0.0,0.0,86,0.00,,---,0.00,VWS V14.01,2013-01-28 04:06:00,
2013-01-27 23:11:00,28.9,25.0,30.58,SSE,164,0.0,0.0,85,0.00,,---,0.00,VWS V14.01,2013-01-28 04:11:00,
2013-01-27 23:16:00,29.0,25.1,30.59,SSE,164,0.0,0.0,85,0.00,,---,0.00,VWS V14.01,2013-01-28 04:16:00,
2013-01-27 23:21:00,29.2,25.5,30.59,SSE,164,0.0,0.0,86,0.00,,---,0.00,VWS V14.01,2013-01-28 04:21:00,
2013-01-27 23:26:00,29.3,25.6,30.59,SSE,164,0.0,0.0,86,0.00,,---,0.00,VWS V14.01,2013-01-28 04:26:00,
2013-01-27 23:31:00,29.3,25.4,30.59,SSE,164,0.0,0.0,85,0.00,,---,0.00,VWS V14.01,2013-01-28 04:31:00,
2013-01-27 23:36:00,29.5,25.6,30.58,SSE,164,0.0,0.0,85,0.00,,---,0.00,VWS V14.01,2013-01-28 04:36:00,
2013-01-27 23:41:00,29.6,25.6,30.58,SSE,164,0.0,0.0,85,0.00,,---,0.00,VWS V14.01,2013-01-28 04:41:00,
2013-01-27 23:46:00,29.7,25.8,30.58,SSE,164,0.0,0.0,85,0.00,,---,0.00,VWS V14.01,2013-01-28 04:46:00,
2013-01-27 23:51:00,29.8,25.9,30.58,SSE,164,0.0,0.0,85,0.00,,---,0.00,VWS V14.01,2013-01-28 04:51:00,
2013-01-27 23:56:00,29.9,26.0,30.58,SSE,164,0.0,0.0,85,0.00,,---,0.00,VWS V14.01,2013-01-28 04:56:00,